GROUP/SHIP,CRUISE_DESIGNATION,JD_GMT,DATE_DDMMYYYY,TIME_HH:MM:SS,LAT_DEC_DEGREE,LONG_DEC_DEGREE,xCO2W_PPM,xCO2A_PPM,xCO2A_INTERPOLATED_PPM,PRES_EQUIL_hPa,PRES_SEALEVEL_hPa,EqTEMP_C,SST(TSG)_C,SAL(TSG)_PERMIL,fCO2W@SST_uATM,fCO2A_uATM,dfCO2_uATM,QC_FLAG,QC_SUBFLAG
AOML/SKOGAFOSS,SKO721,145.893,25052007,21:25:45,64.137,-22.437,-9,387.1,387.01,1009.39,-9,7.78,7.61,34.4,-9,380.16,-9,2,0
AOML/SKOGAFOSS,SKO721,145.894,25052007,21:27:32,64.135,-22.452,-9,386.96,387.01,1008.99,-9,7.77,7.61,34.38,-9,379.87,-9,2,0
AOML/SKOGAFOSS,SKO721,145.895,25052007,21:29:18,64.133,-22.468,-9,386.89,387.01,1009.1,-9,7.76,7.6,34.4,-9,379.85,-9,2,0
AOML/SKOGAFOSS,SKO721,145.897,25052007,21:31:04,64.132,-22.483,-9,387.07,387.01,1008.91,-9,7.76,7.6,34.39,-9,379.95,-9,2,0
AOML/SKOGAFOSS,SKO721,145.898,25052007,21:32:51,64.13,-22.498,-9,387.03,387.01,1009.43,-9,7.76,7.6,34.39,-9,380.11,-9,2,0
AOML/SKOGAFOSS,SKO721,145.901,25052007,21:37:30,64.125,-22.539,212.57,-9,387.06,1009.09,-9,7.78,7.63,34.38,207.37,380,-172.63,3,11
AOML/SKOGAFOSS,SKO721,145.903,25052007,21:40:14,64.123,-22.562,217.66,-9,387.07,1008.96,-9,7.78,7.63,34.38,212.31,379.97,-167.66,3,11
AOML/SKOGAFOSS,SKO721,145.905,25052007,21:42:58,64.12,-22.586,230.62,-9,387.09,1009.28,-9,7.78,7.63,34.4,225.04,380.11,-155.06,3,11
AOML/SKOGAFOSS,SKO721,145.907,25052007,21:45:42,64.117,-22.61,233.88,-9,387.11,1008.73,-9,7.8,7.65,34.4,228.09,379.91,-151.82,3,11
AOML/SKOGAFOSS,SKO721,145.909,25052007,21:48:26,64.115,-22.634,232.19,-9,387.12,1009.2,-9,7.8,7.66,34.4,226.61,380.1,-153.49,3,11
AOML/SKOGAFOSS,SKO721,145.911,25052007,21:51:10,64.112,-22.658,234.26,-9,387.14,1009.08,-9,7.81,7.67,34.41,228.64,380.07,-151.43,3,11
AOML/SKOGAFOSS,SKO721,145.912,25052007,21:53:54,64.109,-22.682,235.37,-9,387.15,1008.7,-9,7.87,7.7,34.4,229.34,379.93,-150.59,3,11
AOML/SKOGAFOSS,SKO721,145.914,25052007,21:56:38,64.106,-22.705,231.94,-9,387.17,1009.07,-9,7.93,7.79,34.42,226.33,380.07,-153.74,3,11
AOML/SKOGAFOSS,SKO721,145.916,25052007,21:59:22,64.102,-22.728,231.26,-9,387.19,1009.26,-9,7.97,7.83,34.47,225.73,380.15,-154.41,3,11
AOML/SKOGAFOSS,SKO721,145.918,25052007,22:02:06,64.096,-22.748,233.09,-9,387.2,1009.55,-9,8.01,7.87,34.49,227.52,380.26,-152.74,3,11
AOML/SKOGAFOSS,SKO721,145.92,25052007,22:04:51,64.089,-22.766,235.09,-9,387.22,1009.29,-9,8.02,7.88,34.51,229.54,380.18,-150.64,3,11
AOML/SKOGAFOSS,SKO721,145.922,25052007,22:07:35,64.082,-22.784,240.9,-9,387.24,1009.61,-9,8.02,7.87,34.54,235.12,380.31,-145.2,3,11
AOML/SKOGAFOSS,SKO721,145.924,25052007,22:10:19,64.075,-22.803,251.45,-9,387.25,1009.38,-9,7.99,7.84,34.56,245.32,380.25,-134.93,3,11
AOML/SKOGAFOSS,SKO721,145.926,25052007,22:13:03,64.067,-22.82,257.47,-9,387.27,1009.93,-9,7.99,7.84,34.57,251.38,380.48,-129.09,3,11
AOML/SKOGAFOSS,SKO721,145.928,25052007,22:15:47,64.059,-22.837,266.18,-9,387.28,1009.68,-9,8,7.83,34.59,259.63,380.39,-120.76,3,11
AOML/SKOGAFOSS,SKO721,145.93,25052007,22:18:31,64.052,-22.854,258.53,-9,387.3,1009.54,-9,8,7.86,34.56,252.35,380.36,-128,3,11
AOML/SKOGAFOSS,SKO721,145.931,25052007,22:21:15,64.044,-22.872,253.01,-9,387.32,1009.66,-9,8.01,7.87,34.57,247,380.42,-133.42,3,11
AOML/SKOGAFOSS,SKO721,145.933,25052007,22:23:59,64.036,-22.889,257.81,-9,387.33,1009.3,-9,8,7.85,34.57,251.54,380.3,-128.76,3,11
AOML/SKOGAFOSS,SKO721,145.935,25052007,22:26:43,64.028,-22.906,251.99,-9,387.35,1009.69,-9,7.98,7.84,34.56,246.06,380.47,-134.4,3,11
AOML/SKOGAFOSS,SKO721,145.937,25052007,22:29:27,64.02,-22.923,249.52,-9,387.37,1009.47,-9,7.99,7.85,34.56,243.55,380.4,-136.84,3,11
AOML/SKOGAFOSS,SKO721,145.939,25052007,22:32:11,64.013,-22.941,254.27,-9,387.38,1009.5,-9,7.99,7.86,34.57,248.3,380.42,-132.12,3,11
AOML/SKOGAFOSS,SKO721,145.941,25052007,22:34:55,64.005,-22.959,262.42,-9,387.4,1009.33,-9,8.03,7.88,34.58,256.06,380.37,-124.3,3,11
AOML/SKOGAFOSS,SKO721,145.943,25052007,22:37:39,63.997,-22.976,271.81,-9,387.41,1009.65,-9,8.06,7.92,34.6,265.33,380.49,-115.16,3,11
AOML/SKOGAFOSS,SKO721,145.945,25052007,22:40:23,63.99,-22.994,258.71,-9,387.43,1009.39,-9,8.16,8.02,34.59,252.53,380.39,-127.85,3,11
AOML/SKOGAFOSS,SKO721,145.947,25052007,22:43:07,63.982,-23.012,258.57,-9,387.45,1009.24,-9,8.23,8.09,34.62,252.32,380.33,-128.01,3,11
AOML/SKOGAFOSS,SKO721,145.949,25052007,22:45:51,63.974,-23.029,262.39,-9,387.46,1009.49,-9,8.24,8.09,34.64,256.08,380.44,-124.36,3,11
AOML/SKOGAFOSS,SKO721,145.95,25052007,22:48:35,63.967,-23.047,265.13,-9,387.48,1009.74,-9,8.24,8.11,34.64,258.91,380.55,-121.64,3,11
AOML/SKOGAFOSS,SKO721,145.952,25052007,22:51:19,63.959,-23.064,273.55,-9,387.49,1009.88,-9,8.27,8.13,34.65,267.09,380.61,-113.51,3,11
AOML/SKOGAFOSS,SKO721,145.954,25052007,22:54:04,63.951,-23.082,271.49,-9,387.51,1009.8,-9,8.27,8.13,34.65,265.02,380.59,-115.57,3,11
AOML/SKOGAFOSS,SKO721,145.956,25052007,22:56:48,63.944,-23.1,268.59,-9,387.53,1009.68,-9,8.27,8.13,34.66,262.24,380.56,-118.32,3,11
AOML/SKOGAFOSS,SKO721,145.958,25052007,22:59:32,63.936,-23.118,265.53,-9,387.54,1009.87,-9,8.26,8.12,34.66,259.28,380.65,-121.38,3,11
AOML/SKOGAFOSS,SKO721,145.96,25052007,23:02:16,63.929,-23.136,265.12,-9,387.56,1009.65,-9,8.27,8.13,34.66,258.79,380.58,-121.79,3,11
AOML/SKOGAFOSS,SKO721,145.962,25052007,23:05:00,63.921,-23.153,266.82,-9,387.58,1009.7,-9,8.27,8.13,34.66,260.51,380.62,-120.11,3,11
AOML/SKOGAFOSS,SKO721,145.964,25052007,23:07:44,63.913,-23.171,269.59,-9,387.59,1009.78,-9,8.27,8.13,34.66,263.24,380.66,-117.42,3,11
AOML/SKOGAFOSS,SKO721,145.966,25052007,23:10:28,63.905,-23.188,274.63,-9,387.61,1009.75,-9,8.3,8.16,34.66,268.09,380.66,-112.57,3,11
AOML/SKOGAFOSS,SKO721,145.968,25052007,23:13:12,63.897,-23.205,274.94,-9,387.62,1010,-9,8.28,8.15,34.66,268.6,380.78,-112.18,3,11
AOML/SKOGAFOSS,SKO721,145.969,25052007,23:15:56,63.89,-23.223,271.02,-9,387.64,1009.48,-9,8.28,8.14,34.67,264.48,380.6,-116.12,3,11
AOML/SKOGAFOSS,SKO721,145.971,25052007,23:18:40,63.882,-23.241,269.45,-9,387.66,1009.76,-9,8.28,8.14,34.68,263.02,380.72,-117.69,3,11
AOML/SKOGAFOSS,SKO721,145.973,25052007,23:21:24,63.874,-23.259,274.38,-9,387.67,1009.87,-9,8.28,8.13,34.7,267.79,380.78,-112.99,3,11
AOML/SKOGAFOSS,SKO721,145.975,25052007,23:24:08,63.866,-23.276,278.75,-9,387.69,1009.54,-9,8.22,8.09,34.68,272.19,380.68,-108.49,3,11
AOML/SKOGAFOSS,SKO721,145.977,25052007,23:26:52,63.859,-23.294,281.05,-9,387.7,1009.58,-9,8.26,8.11,34.68,274.2,380.7,-106.51,3,11
AOML/SKOGAFOSS,SKO721,145.979,25052007,23:29:36,63.851,-23.311,294.14,-9,387.72,1009.77,-9,8.3,8.16,34.7,287.23,380.78,-93.55,3,11
AOML/SKOGAFOSS,SKO721,145.981,25052007,23:32:20,63.843,-23.328,312.3,-9,387.74,1009.57,-9,8.32,8.19,34.76,304.96,380.72,-75.75,3,11
AOML/SKOGAFOSS,SKO721,145.983,25052007,23:35:04,63.835,-23.345,334.4,-9,387.75,1009.63,-9,8.33,8.19,34.85,326.44,380.75,-54.31,3,11
AOML/SKOGAFOSS,SKO721,145.985,25052007,23:37:49,63.827,-23.361,341.87,-9,387.77,1009.34,-9,8.32,8.2,34.88,333.91,380.66,-46.76,3,11
AOML/SKOGAFOSS,SKO721,146,25052007,23:59:40,63.764,-23.493,-9,387.19,387.92,1009.59,-9,0,8.21,34.89,-9,381.82,-9,2,0
AOML/SKOGAFOSS,SKO721,146.001,26052007,0:01:26,63.759,-23.504,-9,387.29,387.92,1009.34,-9,0,8.21,34.89,-9,381.83,-9,2,0
AOML/SKOGAFOSS,SKO721,146.002,26052007,0:03:12,63.754,-23.514,-9,387.72,387.92,1009.65,-9,0,8.19,34.9,-9,382.37,-9,2,0
AOML/SKOGAFOSS,SKO721,146.003,26052007,0:04:59,63.749,-23.525,-9,387.6,387.92,1009.6,-9,8.33,8.19,34.91,-9,380.59,-9,2,0
AOML/SKOGAFOSS,SKO721,146.005,26052007,0:06:45,63.744,-23.536,-9,389.81,387.92,1009.43,-9,8.34,8.19,34.92,-9,382.69,-9,2,0
AOML/SKOGAFOSS,SKO721,146.008,26052007,0:11:24,63.73,-23.565,364.9,-9,387.89,1009.53,-9,8.31,8.16,34.97,356.09,380.85,-24.76,3,11
AOML/SKOGAFOSS,SKO721,146.01,26052007,0:14:08,63.723,-23.581,366.63,-9,387.88,1009.27,-9,8.33,8.17,34.98,357.55,380.74,-23.19,3,11
AOML/SKOGAFOSS,SKO721,146.012,26052007,0:16:52,63.715,-23.598,365.41,-9,387.87,1009.31,-9,8.34,8.19,34.98,356.44,380.74,-24.3,3,11
AOML/SKOGAFOSS,SKO721,146.014,26052007,0:19:36,63.707,-23.614,368.45,-9,387.86,1009.19,-9,8.35,8.22,35.01,359.62,380.68,-21.06,3,11
AOML/SKOGAFOSS,SKO721,146.016,26052007,0:22:21,63.699,-23.631,374.09,-9,387.85,1009.42,-9,8.31,8.17,35.04,365.05,380.77,-15.73,3,11
AOML/SKOGAFOSS,SKO721,146.017,26052007,0:25:05,63.691,-23.647,373.31,-9,387.84,1009.75,-9,8.33,8.2,35.02,364.7,380.88,-16.19,3,11
AOML/SKOGAFOSS,SKO721,146.019,26052007,0:27:49,63.684,-23.664,371.98,-9,387.83,1009.7,-9,8.34,8.21,35.03,363.25,380.85,-17.6,3,11
AOML/SKOGAFOSS,SKO721,146.021,26052007,0:30:33,63.676,-23.68,371.26,-9,387.82,1009.46,-9,8.34,8.2,35.04,362.3,380.75,-18.45,3,11
AOML/SKOGAFOSS,SKO721,146.023,26052007,0:33:17,63.668,-23.697,369.64,-9,387.81,1009.4,-9,8.33,8.19,35.02,360.78,380.72,-19.94,3,11
AOML/SKOGAFOSS,SKO721,146.025,26052007,0:36:01,63.66,-23.714,368.5,-9,387.8,1009.64,-9,8.33,8.19,35.03,359.77,380.8,-21.04,3,11
AOML/SKOGAFOSS,SKO721,146.027,26052007,0:38:45,63.652,-23.73,367.47,-9,387.79,1009.26,-9,8.32,8.19,35.03,358.77,380.65,-21.88,3,11
AOML/SKOGAFOSS,SKO721,146.029,26052007,0:41:29,63.644,-23.747,367.19,-9,387.78,1009.1,-9,8.3,8.16,35.03,358.28,380.59,-22.3,3,11
AOML/SKOGAFOSS,SKO721,146.031,26052007,0:44:13,63.636,-23.764,367.02,-9,387.77,1009.27,-9,8.3,8.16,35.01,358.14,380.64,-22.5,3,11
AOML/SKOGAFOSS,SKO721,146.033,26052007,0:46:57,63.629,-23.781,366.03,-9,387.76,1009.51,-9,8.34,8.19,35,357.13,380.71,-23.59,3,11
AOML/SKOGAFOSS,SKO721,146.035,26052007,0:49:41,63.621,-23.799,363.48,-9,387.75,1009.32,-9,8.33,8.19,35.01,354.68,380.63,-25.95,3,11
AOML/SKOGAFOSS,SKO721,146.036,26052007,0:52:25,63.614,-23.817,365.19,-9,387.74,1009.21,-9,8.34,8.2,35.01,356.28,380.58,-24.3,3,11
AOML/SKOGAFOSS,SKO721,146.038,26052007,0:55:09,63.606,-23.835,369.55,-9,387.73,1009.5,-9,8.34,8.2,35.02,360.7,380.68,-19.98,3,11
AOML/SKOGAFOSS,SKO721,146.04,26052007,0:57:53,63.599,-23.853,375.04,-9,387.72,1009.5,-9,8.33,8.19,35.05,366.05,380.67,-14.62,3,11
AOML/SKOGAFOSS,SKO721,146.042,26052007,1:00:38,63.592,-23.871,377.32,-9,387.71,1009.27,-9,8.31,8.17,35.07,368.23,380.58,-12.35,3,11
AOML/SKOGAFOSS,SKO721,146.044,26052007,1:03:22,63.584,-23.889,379.92,-9,387.7,1009.13,-9,8.29,8.15,35.06,370.63,380.52,-9.89,3,11
AOML/SKOGAFOSS,SKO721,146.046,26052007,1:06:06,63.577,-23.906,379.69,-9,387.69,1009.41,-9,8.31,8.18,35.04,370.74,380.61,-9.88,3,11
AOML/SKOGAFOSS,SKO721,146.048,26052007,1:08:50,63.569,-23.923,374.18,-9,387.68,1009.36,-9,8.33,8.19,35.05,365.09,380.58,-15.49,3,11
AOML/SKOGAFOSS,SKO721,146.05,26052007,1:11:34,63.562,-23.941,372.75,-9,387.67,1008.96,-9,8.33,8.18,35.05,363.47,380.42,-16.94,3,11
AOML/SKOGAFOSS,SKO721,146.052,26052007,1:14:18,63.554,-23.958,376.01,-9,387.66,1009.26,-9,8.32,8.16,35.07,366.63,380.52,-13.9,3,11
AOML/SKOGAFOSS,SKO721,146.053,26052007,1:17:02,63.546,-23.975,379.87,-9,387.65,1009.07,-9,8.31,8.17,35.05,370.65,380.44,-9.8,3,11
AOML/SKOGAFOSS,SKO721,146.055,26052007,1:19:46,63.539,-23.993,379.74,-9,387.64,1009.12,-9,8.3,8.16,35.07,370.47,380.46,-9.98,3,11
AOML/SKOGAFOSS,SKO721,146.057,26052007,1:22:30,63.531,-24.009,381.44,-9,387.63,1009.16,-9,8.3,8.16,35.07,372.12,380.46,-8.34,3,11
AOML/SKOGAFOSS,SKO721,146.059,26052007,1:25:14,63.524,-24.026,381.46,-9,387.62,1009.02,-9,8.32,8.16,35.07,371.8,380.39,-8.6,3,11
AOML/SKOGAFOSS,SKO721,146.061,26052007,1:27:58,63.516,-24.043,382.32,-9,387.61,1009.21,-9,8.31,8.15,35.07,372.79,380.46,-7.67,2,0
AOML/SKOGAFOSS,SKO721,146.063,26052007,1:30:42,63.508,-24.06,382.2,-9,387.6,1009.18,-9,8.31,8.15,35.06,372.65,380.44,-7.79,2,0
AOML/SKOGAFOSS,SKO721,146.065,26052007,1:33:26,63.501,-24.077,381.39,-9,387.59,1009.18,-9,8.3,8.14,35.07,371.84,380.43,-8.58,2,0
AOML/SKOGAFOSS,SKO721,146.067,26052007,1:36:10,63.493,-24.094,381.36,-9,387.58,1009.16,-9,8.27,8.13,35.08,372.06,380.42,-8.37,2,0
AOML/SKOGAFOSS,SKO721,146.069,26052007,1:38:54,63.485,-24.111,382.02,-9,387.57,1009.02,-9,8.25,8.11,35.09,372.63,380.36,-7.73,2,0
AOML/SKOGAFOSS,SKO721,146.071,26052007,1:41:38,63.478,-24.128,385.01,-9,387.56,1008.94,-9,8.24,8.09,35.08,375.39,380.33,-4.94,2,0
AOML/SKOGAFOSS,SKO721,146.072,26052007,1:44:22,63.47,-24.145,385.62,-9,387.55,1009.03,-9,8.23,8.08,35.06,376.11,380.35,-4.24,2,0
AOML/SKOGAFOSS,SKO721,146.074,26052007,1:47:07,63.462,-24.161,379.83,-9,387.54,1009.1,-9,8.23,8.09,35.07,370.68,380.37,-9.69,3,11
AOML/SKOGAFOSS,SKO721,146.076,26052007,1:49:51,63.454,-24.178,379.44,-9,387.53,1009.36,-9,8.22,8.08,35.07,370.27,380.46,-10.19,2,0
AOML/SKOGAFOSS,SKO721,146.078,26052007,1:52:35,63.447,-24.195,380.74,-9,387.52,1008.75,-9,8.21,8.06,35.08,371.27,380.22,-8.95,2,0
AOML/SKOGAFOSS,SKO721,146.08,26052007,1:55:19,63.439,-24.212,374.54,-9,387.51,1008.94,-9,8.23,8.08,35.07,365.21,380.28,-15.07,2,0
AOML/SKOGAFOSS,SKO721,146.082,26052007,1:58:03,63.432,-24.229,372.5,-9,387.5,1008.8,-9,8.23,8.08,35.07,363.22,380.22,-16.99,3,11
AOML/SKOGAFOSS,SKO721,146.084,26052007,2:00:47,63.424,-24.246,377.1,-9,387.49,1009.06,-9,8.22,8.08,35.07,367.88,380.31,-12.43,2,0
AOML/SKOGAFOSS,SKO721,146.086,26052007,2:03:31,63.416,-24.262,382.32,-9,387.48,1008.87,-9,8.22,8.08,35.06,372.96,380.23,-7.27,2,0
AOML/SKOGAFOSS,SKO721,146.088,26052007,2:06:15,63.408,-24.279,380.29,-9,387.47,1009.08,-9,8.23,8.09,35.07,370.99,380.29,-9.3,2,0
AOML/SKOGAFOSS,SKO721,146.09,26052007,2:08:59,63.401,-24.296,376.42,-9,387.46,1009.08,-9,8.23,8.1,35.07,367.34,380.28,-12.94,3,11
AOML/SKOGAFOSS,SKO721,146.091,26052007,2:11:43,63.393,-24.313,374.63,-9,387.45,1009.04,-9,8.23,8.09,35.07,365.43,380.26,-14.82,2,0
AOML/SKOGAFOSS,SKO721,146.107,26052007,2:33:35,63.332,-24.448,-9,387.12,387.36,1008.97,-9,8.28,8.14,35.07,-9,379.9,-9,2,0
AOML/SKOGAFOSS,SKO721,146.108,26052007,2:35:21,63.327,-24.459,-9,387.34,387.36,1008.93,-9,8.28,8.13,35.08,-9,380.09,-9,2,0
AOML/SKOGAFOSS,SKO721,146.109,26052007,2:37:07,63.322,-24.469,-9,387.37,387.36,1009.16,-9,8.28,8.15,35.06,-9,380.21,-9,2,0
AOML/SKOGAFOSS,SKO721,146.11,26052007,2:38:53,63.317,-24.48,-9,387.44,387.36,1008.65,-9,8.29,8.15,35.06,-9,380.09,-9,2,0
AOML/SKOGAFOSS,SKO721,146.112,26052007,2:40:40,63.312,-24.491,-9,387.53,387.36,1008.96,-9,8.28,8.14,35.07,-9,380.3,-9,2,0
AOML/SKOGAFOSS,SKO721,146.115,26052007,2:45:19,63.299,-24.519,343.55,-9,387.39,1008.57,-9,8.29,8.15,35.07,334.98,380,-45.02,3,11
AOML/SKOGAFOSS,SKO721,146.117,26052007,2:48:03,63.291,-24.536,343.5,-9,387.4,1009.11,-9,8.3,8.14,35.07,334.91,380.21,-45.3,3,11
AOML/SKOGAFOSS,SKO721,146.119,26052007,2:50:47,63.283,-24.553,344.51,-9,387.4,1008.77,-9,8.31,8.15,35.06,335.76,380.09,-44.32,3,11
AOML/SKOGAFOSS,SKO721,146.12,26052007,2:53:31,63.276,-24.569,342.02,-9,387.41,1008.68,-9,8.31,8.17,35.06,333.51,380.06,-46.55,3,11
AOML/SKOGAFOSS,SKO721,146.122,26052007,2:56:15,63.268,-24.586,342.42,-9,387.42,1008.58,-9,8.32,8.17,35.08,333.77,380.03,-46.26,3,11
AOML/SKOGAFOSS,SKO721,146.124,26052007,2:59:00,63.26,-24.603,343.83,-9,387.43,1008.82,-9,8.32,8.18,35.06,335.31,380.13,-44.82,3,11
AOML/SKOGAFOSS,SKO721,146.126,26052007,3:01:44,63.253,-24.619,345.04,-9,387.44,1008.64,-9,8.3,8.16,35.07,336.43,380.08,-43.65,3,11
AOML/SKOGAFOSS,SKO721,146.128,26052007,3:04:28,63.245,-24.635,350.06,-9,387.45,1008.47,-9,8.31,8.16,35.05,341.24,380.02,-38.77,3,11
AOML/SKOGAFOSS,SKO721,146.13,26052007,3:07:12,63.237,-24.652,343.55,-9,387.46,1008.84,-9,8.33,8.17,35.06,334.86,380.16,-45.3,3,11
AOML/SKOGAFOSS,SKO721,146.132,26052007,3:09:56,63.23,-24.668,349.16,-9,387.47,1008.7,-9,8.34,8.2,35.04,340.5,380.12,-39.61,3,11
AOML/SKOGAFOSS,SKO721,146.134,26052007,3:12:40,63.222,-24.684,349.48,-9,387.48,1008.75,-9,8.35,8.21,35.06,340.78,380.14,-39.36,3,11
AOML/SKOGAFOSS,SKO721,146.136,26052007,3:15:24,63.214,-24.7,347.29,-9,387.49,1008.71,-9,8.38,8.23,35.05,338.65,380.13,-41.48,3,11
AOML/SKOGAFOSS,SKO721,146.138,26052007,3:18:08,63.206,-24.717,348.54,-9,387.49,1008.3,-9,8.4,8.26,35.05,339.75,379.97,-40.23,3,11
AOML/SKOGAFOSS,SKO721,146.139,26052007,3:20:52,63.199,-24.734,351.54,-9,387.5,1008.77,-9,8.4,8.26,35.07,342.82,380.16,-37.34,3,11
AOML/SKOGAFOSS,SKO721,146.141,26052007,3:23:36,63.191,-24.75,350.81,-9,387.51,1008.64,-9,8.35,8.2,35.08,341.88,380.13,-38.25,3,11
AOML/SKOGAFOSS,SKO721,146.143,26052007,3:26:20,63.183,-24.767,350.22,-9,387.52,1008.46,-9,8.35,8.2,35.05,341.3,380.07,-38.78,3,11
AOML/SKOGAFOSS,SKO721,146.145,26052007,3:29:04,63.175,-24.783,350.23,-9,387.53,1008.51,-9,8.35,8.21,35.05,341.55,380.1,-38.55,3,11
AOML/SKOGAFOSS,SKO721,146.147,26052007,3:31:48,63.168,-24.8,348.28,-9,387.54,1008.63,-9,8.36,8.22,35.06,339.64,380.15,-40.52,3,11
AOML/SKOGAFOSS,SKO721,146.149,26052007,3:34:32,63.16,-24.816,349.23,-9,387.55,1008.63,-9,8.43,8.28,35.04,340.36,380.14,-39.79,3,11
AOML/SKOGAFOSS,SKO721,146.151,26052007,3:37:16,63.152,-24.833,347.2,-9,387.56,1008.6,-9,8.43,8.28,35.07,338.48,380.14,-41.67,3,11
AOML/SKOGAFOSS,SKO721,146.153,26052007,3:40:01,63.145,-24.849,352.1,-9,387.57,1008.53,-9,8.42,8.29,35.07,343.41,380.13,-36.72,2,0
AOML/SKOGAFOSS,SKO721,146.155,26052007,3:42:45,63.137,-24.866,350.73,-9,387.57,1008.36,-9,8.45,8.3,35.07,341.82,380.06,-38.24,2,0
AOML/SKOGAFOSS,SKO721,146.157,26052007,3:45:29,63.129,-24.882,349.8,-9,387.58,1008.66,-9,8.42,8.28,35.09,341.05,380.19,-39.14,2,0
AOML/SKOGAFOSS,SKO721,146.158,26052007,3:48:13,63.122,-24.899,352.99,-9,387.59,1008.68,-9,8.4,8.27,35.06,344.37,380.22,-35.85,2,0
AOML/SKOGAFOSS,SKO721,146.16,26052007,3:50:57,63.114,-24.916,352.17,-9,387.6,1008.13,-9,8.41,8.26,35.07,343.14,380.01,-36.87,2,0
AOML/SKOGAFOSS,SKO721,146.162,26052007,3:53:41,63.106,-24.932,351.87,-9,387.61,1008.8,-9,8.4,8.26,35.05,343.15,380.28,-37.13,2,0
AOML/SKOGAFOSS,SKO721,146.164,26052007,3:56:25,63.098,-24.949,354.49,-9,387.62,1008.3,-9,8.48,8.39,35.02,346.29,380.08,-33.79,3,11
AOML/SKOGAFOSS,SKO721,146.166,26052007,3:59:09,63.091,-24.965,350.56,-9,387.63,1008.6,-9,8.56,8.42,35.06,341.85,380.18,-38.32,2,0
AOML/SKOGAFOSS,SKO721,146.168,26052007,4:01:53,63.083,-24.982,349.96,-9,387.64,1008.66,-9,8.56,8.42,35.07,341.2,380.21,-39.01,2,0
AOML/SKOGAFOSS,SKO721,146.17,26052007,4:04:37,63.076,-24.998,352.1,-9,387.65,1008.68,-9,8.56,8.41,35.06,343.12,380.23,-37.11,2,0
AOML/SKOGAFOSS,SKO721,146.172,26052007,4:07:21,63.068,-25.015,350.79,-9,387.66,1008.69,-9,8.57,8.41,35.06,341.71,380.24,-38.52,3,11
AOML/SKOGAFOSS,SKO721,146.174,26052007,4:10:05,63.061,-25.031,351.65,-9,387.66,1008.57,-9,8.58,8.46,35.03,343.11,380.2,-37.09,2,0
AOML/SKOGAFOSS,SKO721,146.176,26052007,4:12:49,63.053,-25.048,343.71,-9,387.67,1008.47,-9,8.66,8.51,35.05,334.91,380.15,-45.23,2,0
AOML/SKOGAFOSS,SKO721,146.177,26052007,4:15:33,63.045,-25.065,340.93,-9,387.68,1008.69,-9,8.65,8.5,35.07,332.21,380.24,-48.03,2,0
AOML/SKOGAFOSS,SKO721,146.179,26052007,4:18:18,63.038,-25.081,336.75,-9,387.69,1008.33,-9,8.59,8.45,35.09,328.19,380.13,-51.94,3,11
AOML/SKOGAFOSS,SKO721,146.181,26052007,4:21:02,63.03,-25.098,336.47,-9,387.7,1008.35,-9,8.53,8.38,35.09,327.88,380.16,-52.29,2,0
AOML/SKOGAFOSS,SKO721,146.183,26052007,4:23:46,63.023,-25.115,340.68,-9,387.71,1008.25,-9,8.47,8.32,35.08,331.99,380.15,-48.16,2,0
AOML/SKOGAFOSS,SKO721,146.185,26052007,4:26:30,63.016,-25.131,346.8,-9,387.72,1008.47,-9,8.44,8.3,35.06,338.08,380.25,-42.17,2,0
AOML/SKOGAFOSS,SKO721,146.187,26052007,4:29:14,63.008,-25.147,348.46,-9,387.73,1008.22,-9,8.42,8.27,35.07,339.53,380.17,-40.64,2,0
AOML/SKOGAFOSS,SKO721,146.189,26052007,4:31:58,63.001,-25.164,345.53,-9,387.74,1008.61,-9,8.44,8.3,35.04,336.88,380.32,-43.44,2,0
AOML/SKOGAFOSS,SKO721,146.191,26052007,4:34:42,62.993,-25.18,342.69,-9,387.75,1008.44,-9,8.44,8.31,35.06,334.2,380.26,-46.06,2,0
AOML/SKOGAFOSS,SKO721,146.193,26052007,4:37:26,62.985,-25.196,341.74,-9,387.75,1008.56,-9,8.47,8.33,35.06,333.14,380.31,-47.17,2,0
AOML/SKOGAFOSS,SKO721,146.195,26052007,4:40:10,62.978,-25.212,340.91,-9,387.76,1008.57,-9,8.48,8.32,35.07,332.09,380.32,-48.23,2,0
AOML/SKOGAFOSS,SKO721,146.196,26052007,4:42:54,62.97,-25.229,345.1,-9,387.77,1008.47,-9,8.45,8.3,35.07,336.25,380.3,-44.05,2,0
AOML/SKOGAFOSS,SKO721,146.198,26052007,4:45:38,62.963,-25.245,344.29,-9,387.78,1008.43,-9,8.44,8.3,35.06,335.64,380.29,-44.66,2,0
AOML/SKOGAFOSS,SKO721,146.214,26052007,5:07:29,62.902,-25.372,-9,387.57,387.86,1008.24,-9,8.38,8.24,35.06,-9,380.04,-9,2,0
AOML/SKOGAFOSS,SKO721,146.215,26052007,5:09:16,62.897,-25.382,-9,387.81,387.86,1008.11,-9,8.38,8.24,35.06,-9,380.22,-9,2,0
AOML/SKOGAFOSS,SKO721,146.216,26052007,5:11:02,62.892,-25.393,-9,387.79,387.86,1008.27,-9,8.38,8.25,35.06,-9,380.26,-9,2,0
AOML/SKOGAFOSS,SKO721,146.217,26052007,5:12:48,62.887,-25.403,-9,387.93,387.86,1008.12,-9,8.38,8.24,35.07,-9,380.34,-9,2,0
AOML/SKOGAFOSS,SKO721,146.218,26052007,5:14:34,62.882,-25.413,-9,388.22,387.86,1008.21,-9,8.4,8.24,35.06,-9,380.66,-9,2,0
AOML/SKOGAFOSS,SKO721,146.222,26052007,5:19:14,62.869,-25.44,358.53,-9,387.87,1008.19,-9,8.36,8.21,35.07,349.3,380.31,-31.02,3,11
AOML/SKOGAFOSS,SKO721,146.224,26052007,5:21:58,62.861,-25.455,362.86,-9,387.88,1007.69,-9,8.32,8.18,35.07,353.5,380.14,-26.64,3,11
AOML/SKOGAFOSS,SKO721,146.225,26052007,5:24:42,62.853,-25.471,368.59,-9,387.88,1008.17,-9,8.27,8.13,35.06,359.26,380.34,-21.08,3,11
AOML/SKOGAFOSS,SKO721,146.227,26052007,5:27:26,62.845,-25.487,372.89,-9,387.88,1008.14,-9,8.26,8.11,35.04,363.32,380.33,-17.01,3,11
AOML/SKOGAFOSS,SKO721,146.229,26052007,5:30:10,62.838,-25.503,376.99,-9,387.88,1008.14,-9,8.26,8.11,35.03,367.38,380.33,-12.96,3,11
AOML/SKOGAFOSS,SKO721,146.231,26052007,5:32:54,62.83,-25.518,378.37,-9,387.89,1008.05,-9,8.26,8.12,35.03,368.75,380.3,-11.56,3,11
AOML/SKOGAFOSS,SKO721,146.233,26052007,5:35:38,62.822,-25.534,378.04,-9,387.89,1008.04,-9,8.28,8.13,35.04,368.41,380.3,-11.89,3,11
AOML/SKOGAFOSS,SKO721,146.235,26052007,5:38:22,62.814,-25.55,377.12,-9,387.89,1008.38,-9,8.29,8.14,35.04,367.59,380.43,-12.83,3,11
AOML/SKOGAFOSS,SKO721,146.237,26052007,5:41:06,62.807,-25.566,377.69,-9,387.9,1008.13,-9,8.27,8.13,35.04,368.08,380.34,-12.26,3,11
AOML/SKOGAFOSS,SKO721,146.239,26052007,5:43:50,62.799,-25.581,378.43,-9,387.9,1008.03,-9,8.27,8.12,35.04,368.7,380.3,-11.6,3,11
AOML/SKOGAFOSS,SKO721,146.241,26052007,5:46:34,62.791,-25.597,378.49,-9,387.9,1007.91,-9,8.27,8.12,35.04,368.76,380.26,-11.5,3,11
AOML/SKOGAFOSS,SKO721,146.243,26052007,5:49:18,62.784,-25.613,377.53,-9,387.91,1008.17,-9,8.26,8.12,35.04,367.99,380.36,-12.38,3,11
AOML/SKOGAFOSS,SKO721,146.244,26052007,5:52:02,62.776,-25.629,376.43,-9,387.91,1008.25,-9,8.29,8.16,35.02,367.07,380.39,-13.32,3,11
AOML/SKOGAFOSS,SKO721,146.246,26052007,5:54:46,62.768,-25.645,375.58,-9,387.91,1008.08,-9,8.32,8.17,35.03,365.92,380.32,-14.4,3,11
AOML/SKOGAFOSS,SKO721,146.248,26052007,5:57:30,62.76,-25.66,374.55,-9,387.91,1008.04,-9,8.31,8.16,35.05,364.92,380.31,-15.39,3,11
AOML/SKOGAFOSS,SKO721,146.25,26052007,6:00:15,62.753,-25.676,374.05,-9,387.92,1008.02,-9,8.28,8.14,35.05,364.51,380.31,-15.8,3,11
AOML/SKOGAFOSS,SKO721,146.252,26052007,6:02:59,62.745,-25.692,375.62,-9,387.92,1008.22,-9,8.29,8.13,35.05,365.81,380.39,-14.58,3,11
AOML/SKOGAFOSS,SKO721,146.254,26052007,6:05:43,62.737,-25.709,375.37,-9,387.92,1008.12,-9,8.28,8.13,35.03,365.7,380.36,-14.66,3,11
AOML/SKOGAFOSS,SKO721,146.256,26052007,6:08:27,62.729,-25.725,372.05,-9,387.93,1008.14,-9,8.29,8.14,35.05,362.44,380.37,-17.92,3,11
AOML/SKOGAFOSS,SKO721,146.258,26052007,6:11:11,62.722,-25.741,374.42,-9,387.93,1007.78,-9,8.29,8.13,35.04,364.57,380.23,-15.66,3,11
AOML/SKOGAFOSS,SKO721,146.26,26052007,6:13:55,62.714,-25.757,373.03,-9,387.93,1008.27,-9,8.28,8.14,35.03,363.61,380.42,-16.81,2,0
AOML/SKOGAFOSS,SKO721,146.262,26052007,6:16:39,62.706,-25.773,372.93,-9,387.93,1008.08,-9,8.26,8.12,35.06,363.5,380.36,-16.86,3,11
AOML/SKOGAFOSS,SKO721,146.263,26052007,6:19:23,62.698,-25.789,376.89,-9,387.94,1008.02,-9,8.24,8.1,35.04,367.29,380.34,-13.05,2,0
AOML/SKOGAFOSS,SKO721,146.265,26052007,6:22:07,62.69,-25.805,377.79,-9,387.94,1007.88,-9,8.24,8.1,35.02,368.15,380.29,-12.15,2,0
AOML/SKOGAFOSS,SKO721,146.267,26052007,6:24:51,62.682,-25.821,376.59,-9,387.94,1008.2,-9,8.25,8.11,35.03,367.04,380.42,-13.38,2,0
AOML/SKOGAFOSS,SKO721,146.269,26052007,6:27:35,62.675,-25.837,375.76,-9,387.95,1008.18,-9,8.26,8.11,35.03,366.12,380.41,-14.29,3,11
AOML/SKOGAFOSS,SKO721,146.271,26052007,6:30:19,62.667,-25.853,374.38,-9,387.95,1008.2,-9,8.27,8.13,35.02,365.01,380.42,-15.41,2,0